Regional Weather Roundup
Issued by NWS

Home | Current Version | Previous Version | Graphics & Text | Print | Product List | Glossary Off
Versions: 1 2 3 4 5 6 7 8 9 10 11 12 13 14 15 16 17 18 19 20 21 22 23 24 25 26 27 28 29 30 31 32 33 34 35 36 37 38 39 40 41 42 43 44 45 46 47 48 49 50

000
ASUS43 KMKX 261200
RWRWI

WISCONSIN REGIONAL WEATHER ROUNDUP
NATIONAL WEATHER SERVICE MILWAUKEE/SULLIVAN WI
700 AM CDT WED APR 26 2017

NOTE: "FAIR" INDICATES FEW OR NO CLOUDS BELOW 12,000 FEET WITH NO
SIGNIFICANT WEATHER AND/OR OBSTRUCTIONS TO VISIBILITY.

WIZ001-002-006>008-014>016-023>028-261300-
NORTHWEST WISCONSIN

CITY           SKY/WX    TMP DP  RH WIND       PRES   REMARKS
SUPERIOR ARPT  MIX PCPN  32  31  97 NE18G26   29.64F WCI  20
ASHLAND        FRZ RAIN  32  30  92 NE29G36   29.61F FOG     WCI  18
6HR MIN TEMP:  32; 6HR MAX TEMP:  32; 6HR PCP:  0.46;

HAYWARD        FRZ RAIN  33  31  92 NE14      29.53S WCI  23
6HR MIN TEMP:  33; 6HR MAX TEMP:  34; 6HR PCP:  0.29;

SIREN          MIX PCPN  33  32  96 NE12G20   29.53S WCI  24
CUMBERLAND     LGT RAIN  32  32 100 NE14      29.47F WCI  22
RICE LAKE      DRIZZLE   36  34  94 N16       29.49R WCI  26
6HR MIN TEMP:  36; 6HR MAX TEMP:  42; 6HR PCP:  0.04;

CHETEK         CLOUDY    38  37  95 N8        29.47S WCI  32
LADYSMITH      LGT RAIN  37  36  95 N12G18    29.48S WCI  30
6HR MIN TEMP:  37; 6HR MAX TEMP:  43; 6HR PCP:  0.32;

EAU CLAIRE     NOT AVBL
MENOMONIE      CLOUDY    38  38 100 N13       29.45R WCI  31
6HR MIN TEMP:  38; 6HR MAX TEMP:  50; 6HR PCP:  0.01;

NEW RICHMOND   LGT RAIN  36  35  96 N12       29.48R WCI  27
OSCEOLA        LGT RAIN  35  35 100 N10       29.52F WCI  27
$$

WIZ003>005-009-010-017-018-261300-
NORTH CENTRAL WISCONSIN

CITY           SKY/WX    TMP DP  RH WIND       PRES   REMARKS
MANITOWISH WTR LGT RAIN  34  34 100 NE6       29.51S WCI  29
6HR MIN TEMP:  33; 6HR MAX TEMP:  34; 6HR PCP:  0.43;

ARBOR VITAE    LGT RAIN  39  38  94 NE5       29.48F
WOODRUFF       LGT RAIN  39  38  94 NE5       29.48F
RHINELANDER    LGT RAIN  47  46  97 NE7       29.46F FOG
6HR MIN TEMP:  44; 6HR MAX TEMP:  48; 6HR PCP:  0.35;

EAGLE RIVER    LGT RAIN  40  40 100 NE8       29.49F WCI  35
LAND O LAKES   LGT RAIN  37  37  99 NE8       29.53S WCI  31
6HR MIN TEMP:  37; 6HR MAX TEMP:  38; 6HR PCP:  0.35;

PHILLIPS       LGT RAIN  36  36 100 NE12      29.47S WCI  28
6HR MIN TEMP:  36; 6HR MAX TEMP:  39; 6HR PCP:  0.26;

TOMAHAWK       DRIZZLE   44  43  97 NE3       29.46F
MEDFORD        CLOUDY    47  46  97 NE8       29.42R
MERRILL        CLOUDY    53  53 100 E7        29.44S
6HR MIN TEMP:  53; 6HR MAX TEMP:  54; 6HR PCP:  0.10;

$$

WIZ029-030-035-036-043>047-261300-
CENTRAL WISCONSIN

CITY           SKY/WX    TMP DP  RH WIND       PRES   REMARKS
WAUSAU         CLOUDY    53  52  96 E8        29.41S FOG
6HR MIN TEMP:  53; 6HR MAX TEMP:  56; 6HR PCP:  0.06;

MOSINEE        CLOUDY    54  54 100 E9        29.43S FOG
MARSHFIELD     CLOUDY    56  53  90 E12       29.39F FOG
6HR MIN TEMP:  55; 6HR MAX TEMP:  56; 6HR PCP: TRACE;

STEVENS POINT  CLOUDY    53  53 100 E6        29.42S FOG
WAUPACA        CLOUDY    58  56  92 NE3       29.43R
6HR MIN TEMP:  58; 6HR MAX TEMP:  63;

WAUTOMA        CLOUDY    58  55  90 NE5       29.40F
6HR MIN TEMP:  57; 6HR MAX TEMP:  64;

WISC RAPIDS    LGT RAIN  56  55  97 E8        29.41S FOG
6HR MIN TEMP:  56; 6HR MAX TEMP:  62; 6HR PCP:  0.04;

CAMP DOUGLAS   CLOUDY    54  54 100 CALM      29.37F FOG
$$

WIZ011>013-019>022-031-037>040-048>050-261300-
NORTHEAST WISCONSIN

CITY           SKY/WX    TMP DP  RH WIND       PRES   REMARKS
ANTIGO         CLOUDY    49  49 100 E8        29.46S FOG
SHAWANO        CLOUDY    52  50  93 E8        29.46S
6HR MIN TEMP:  52; 6HR MAX TEMP:  56; 6HR PCP:  0.07;

OCONTO         CLOUDY    49  47  95 E6        29.47F
STURGEON BAY   MOSUNNY   56  51  84 S15       29.48F
6HR MIN TEMP:  51; 6HR MAX TEMP:  56; 6HR PCP: TRACE;

GREEN BAY      PTSUNNY   55  54  96 E5        29.45F
6HR MIN TEMP:  52; 6HR MAX TEMP:  57; 6HR PCP:  0.06;

MANITOWOC      NOT AVBL
APPLETON       PTSUNNY   57  52  82 E5        29.42S
CLINTONVILLE   PTSUNNY   52  50  93 NE5       29.44R
OSHKOSH        CLOUDY    60  53  77 SE10      29.41S
6HR MIN TEMP:  59; 6HR MAX TEMP:  62; 6HR PCP: TRACE;

$$

WIZ032>034-041-042-053>061-261300-
SOUTHWEST WISCONSIN

CITY           SKY/WX    TMP DP  RH WIND       PRES   REMARKS
LA CROSSE      CLOUDY    57  55  93 NW5       29.36S FOG
6HR MIN TEMP:  56; 6HR MAX TEMP:  58; 6HR PCP:  0.07;

SPARTA         CLOUDY    52  52 100 CALM      29.37F
6HR MIN TEMP:  51; 6HR MAX TEMP:  56; 6HR PCP:  0.03;

VIROQUA        CLOUDY    55  55  97 E5        29.36F
6HR MIN TEMP:  54; 6HR MAX TEMP:  57; 6HR PCP:  0.03;

BOSCOBEL       CLOUDY    57  56  96 CALM      29.37R FOG
6HR MIN TEMP:  57; 6HR MAX TEMP:  60; 6HR PCP:  0.02;

PRAIRIE DU CHI LGT RAIN  57  56  97 CALM      29.37R
PLATTEVILLE    MOCLDY    58  57  96 CALM      29.38S
$$

WIZ056-057-062-063-064-067-068-261300-
SOUTH CENTRAL WISCONSIN

CITY           SKY/WX    TMP DP  RH WIND       PRES   REMARKS
REEDSBURG      CLOUDY    61  54  79 SE3       29.36F
6HR MIN TEMP:  57; 6HR MAX TEMP:  64;

BARABOO/DELLS  CLOUDY    61  52  73 SE9       29.37F
LONE ROCK      NOT AVBL
MINERAL POINT  CLOUDY    61  55  82 SE3       29.38S
MADISON        CLOUDY    63  54  72 S8        29.40R THUNDER
6HR MIN TEMP:  60; 6HR MAX TEMP:  65; 6HR PCP:  0.01;

MIDDLETON      CLOUDY    61  56  82 SE12      29.39S
6HR MIN TEMP:  59; 6HR MAX TEMP:  67; 6HR PCP:  0.04;

WATERTOWN      CLOUDY    59  55  85 SE9       29.41F
MONROE         LGT RAIN  59  52  77 S10       29.40R
JANESVILLE     CLOUDY    63  54  72 SE14      29.41S
$$

WIZ051-052-058>065-066-070>072-261300-
SOUTHEAST WISCONSIN

CITY           SKY/WX    TMP DP  RH WIND       PRES   REMARKS
MILWAUKEE      PTSUNNY   59  53  80 SE10      29.46S
6HR MIN TEMP:  57; 6HR MAX TEMP:  61; 6HR PCP: TRACE;

WAUKESHA       SUNNY     57  52  82 SE12      29.44F
MILWAUKEE/TIMM MOSUNNY   59  50  72 SE7       29.45S
RACINE         MOSUNNY   55  49  80 S12       29.47F
6HR MIN TEMP:  54; 6HR MAX TEMP:  56;

KENOSHA        CLOUDY    60  53  77 SE7       29.46S
6HR MIN TEMP:  57; 6HR MAX TEMP:  62;

FOND DU LAC    CLOUDY    61  51  70 SE13      29.42S
6HR MIN TEMP:  60; 6HR MAX TEMP:  63; 6HR PCP: TRACE;

SHEBOYGAN      CLOUDY    52  48  86 S10       29.46S
6HR MIN TEMP:  51; 6HR MAX TEMP:  57; 6HR PCP: TRACE;

WEST BEND      MOSUNNY   59  54  82 SE6       29.45R
JUNEAU         CLOUDY    59  53  79 SE9       29.43S
$$

LSZ147-162-261300-
LAKE SUPERIOR

STATION/POSITION TIME  TEMP    WIND        PRES    WAVE
                       AIR SEA DIR/SP/G            HT/PER
                 (UTC) (F)     (DEG/KT/KT) (MB)    (FT/S)
DEVILS ISLAND    1100   32      40/ 30/ 35 1005.5F
PORT WING        1130   33      40/ 27/ 35 1003.4F
SAXON HARBOR     1140   34      50/ 28/ 31 1002.4F
$$

LMZ867-665-643>646-261300-
LAKE MICHIGAN

STATION/POSITION TIME  TEMP    WIND        PRES    WAVE
                       AIR SEA DIR/SP/G            HT/PER
                 (UTC) (F)     (DEG/KT/KT) (MB)    (FT/S)
CHAMBERS ISLAND  1140   40      10/  7/ 10  999.0F
N MID LAKE BUOY  1050   43 37  110/ 10/ 12 1000.8F   2/ 4
NORTHPORT PIER   1140   42     140/  3/  6  999.7F
KEWAUNEE LAKESHO 1130   51     170/  9/ 11  998.2F
SHEBOYGAN LAKESH 1100   47     170/  8/ 10  998.0F
PORT WASHINGTON  1130   48     170/  4/  6  999.0S
MILWAUKEE LAKESH 1130   49     160/ 12/ 13   N/A
S MID LAKE BUOY  1050   47 41  120/ 12/ 14  999.2F   1/ 3
KENOSHA   LAKESH 1100   51     180/ 10/ 14  998.3
$$

TC  - TEMPERATURE IN CELSIUS
VSB - VISIBILITY IN STATUTE MILES
WCI - WIND CHILL INDEX
HX  - HEAT INDEX





USA.gov is the U.S. government's official web portal to all federal, state and local government web resources and services.